This is the latest recevied weather packets stored in our database for station/object KJ5JYX. If no packets are shown the sender has not sent any weather packets the latest 10 day(s).
| Time | Temp. | Humidity | Pressure | Rain* | Wind** | Luminosity | Snow |
|---|---|---|---|---|---|---|---|
| 1777908911 | 21.11° C | 75% | 1015.6 hPa | 0 mm | - | 216 W/m² | - |
| 1777908610 | 21.11° C | 76% | 1015.5 hPa | 0 mm | - | 202 W/m² | - |
| 1777908305 | 21.11° C | 76% | 1015.6 hPa | 0 mm | - | 187 W/m² | - |
| 1777908001 | 21.11° C | 77% | 1015.5 hPa | 0 mm | - | 186 W/m² | - |
| 1777907697 | 21.11° C | 76% | 1015.7 hPa | 0 mm | - | 149 W/m² | - |
| 1777907392 | 21.11° C | 76% | 1015.4 hPa | 0 mm | - | 255 W/m² | - |
| 1777907089 | 21.67° C | 75% | 1015.4 hPa | 0 mm | - | 209 W/m² | - |
| 1777906787 | 21.67° C | 75% | 1015.7 hPa | 0 mm | - | 393 W/m² | - |
| 1777906484 | 21.11° C | 77% | 1015.6 hPa | 0 mm | - | 111 W/m² | - |
| 1777906180 | 20.56° C | 76% | 1015.5 hPa | 0 mm | - | 153 W/m² | - |
| 1777905877 | 20° C | 78% | 1015.8 hPa | 0 mm | - | 139 W/m² | - |
| 1777905574 | 20° C | 78% | 1015.9 hPa | 0 mm | - | 100 W/m² | - |
| 1777905271 | 20.56° C | 77% | 1015.6 hPa | 0 mm | - | 142 W/m² | - |
| 1777904968 | 20.56° C | 77% | 1015.7 hPa | 0 mm | - | 173 W/m² | - |
| 1777904666 | 20° C | 78% | 1015.7 hPa | 0 mm | - | 157 W/m² | - |
| 1777904362 | 20° C | 78% | 1015.7 hPa | 0 mm | - | 132 W/m² | - |
| 1777904059 | 20° C | 78% | 1015.5 hPa | 0 mm | - | 99 W/m² | - |
| 1777903756 | 20° C | 79% | 1015.7 hPa | 0 mm | - | 95 W/m² | - |
| 1777903452 | 20° C | 79% | 1015.5 hPa | 0 mm | - | 56 W/m² | - |
| 1777903149 | 19.44° C | 80% | 1015.4 hPa | 0 mm | - | 55 W/m² | - |
| 1777902845 | 19.44° C | 80% | 1015.3 hPa | 0 mm | - | 56 W/m² | - |
| 1777902543 | 19.44° C | 80% | 1015.4 hPa | 0 mm | - | 64 W/m² | - |
| 1777902239 | 18.89° C | 80% | 1015.6 hPa | 0 mm | - | 45 W/m² | - |
| 1777901937 | 18.89° C | 81% | 1015.4 hPa | 0 mm | - | 45 W/m² | - |
| 1777901635 | 18.89° C | 81% | 1015.5 hPa | 0 mm | - | 49 W/m² | - |
* Rain latest hour (hover to see other rain measurements)
** Current wind speed in m/s (hover to see current wind gust speed)